Location: Berlín
(7.1167°N, 73.9167°W)
Time: 06:30:11
(UTC+00:00)

Daily predictions for brighter satellites

Satellite Brightness Start Highest point End
(mag) Time Altitude Azimuth Time Altitude Azimuth Time Altitude Azimuth
BlueWalker 3 3.3 22:51:55 10° WSW 22:55:13 34° NW 22:58:32 10° NNE
Cosmos 2058 4.5 22:55:28 10° NE 22:57:40 14° E 22:59:51 10° ESE
Ariane H10-3 1.9 22:57:04 10° W 22:59:25 69° S 23:05:57 10° E
AQUARIUS 4.1 22:56:38 10° SSE 23:00:58 59° ENE 23:05:17 10° N
Landsat 7 3.8 22:59:57 10° SSE 23:04:36 89° W 23:09:14 10° NNW
Cosmos 676 Rocket 4.1 23:00:40 10° SSW 23:05:58 89° W 23:11:16 10° NNE
NOSS 3-4 (A) 4.4 23:04:38 10° NNW 23:12:47 84° WSW 23:21:42 10° SSE
NOSS 3-4 (C) 4.4 23:04:43 10° NNW 23:12:52 85° WSW 23:21:45 10° SSE
SPOT 1/Viking Rocket 4.0 23:08:55 10° SE 23:13:39 38° ENE 23:18:23 10° N
ARIANE 5 R/B 1.9 23:10:46 10° WSW 23:14:28 33° S 23:16:17 11° ESE
Cosmos 1455 Rocket 3.9 23:16:03 10° SSE 23:19:42 27° E 23:22:45 13° NE
Cosmos 1464 Rocket 4.4 23:14:06 10° S 23:20:25 71° W 23:26:42 10° N
SL-4 R/B 3.3 23:18:26 10° N 23:20:58 17° NE 23:21:08 17° ENE
Cosmos 371 Rocket 4.3 23:17:07 10° SSW 23:21:42 48° WNW 23:26:18 10° N
CZ-4 R/B 4.2 23:24:14 10° SSE 23:28:12 75° ENE 23:32:09 10° N
Cosmos 2297 3.9 23:24:00 10° S 23:29:30 49° ESE 23:34:18 13° NNE
Sich 1 Rocket 3.9 23:25:56 10° S 23:30:23 72° W 23:34:52 10° N
MOS 1 Rocket 3.2 23:26:44 10° S 23:30:59 73° W 23:35:12 10° NNW
Cosmos 2034 Rocket 3.9 23:26:18 10° S 23:32:27 90° E 23:38:38 10° N
Spot 4 Rocket 4.1 23:27:40 10° SSE 23:32:35 50° ENE 23:37:28 10° N
USA 215 4.0 23:27:28 10° ESE 23:32:56 29° NE 23:38:24 10° N
Cosmos 2369 Rocket 2.2 23:28:03 10° S 23:33:30 56° ESE 23:38:10 14° NNE
Cosmos 968 Rocket 3.3 23:30:28 10° S 23:35:32 78° ESE 23:40:39 10° NNE
Okean 1 Rocket 3.8 23:33:12 10° SSW 23:37:34 56° W 23:41:53 10° N
ARIANE 5 DEB (SYLDA) 4.1 23:36:12 10° WSW 23:38:43 40° SSE 23:41:27 20° ESE
Cosmos 1741 Rocket 4.0 23:37:16 10° S 23:42:24 62° ESE 23:46:11 18° NNE
ATLAS 5 CENTAUR R/B 2.6 23:40:30 10° N 23:46:03 46° ENE 23:52:29 10° SE
Yuri Rocket 3.9 23:43:29 10° SW 23:48:08 36° SSE 23:49:24 30° ESE
Cosmos 332 Rocket 3.7 23:45:57 10° S 23:50:46 69° ESE 23:53:17 28° NNE
Cosmos 1602 3.5 23:48:13 10° NNW 23:51:13 61° W 23:54:14 10° S
ATLAS 5 CENTAUR R/B 3.5 23:52:32 10° SSE 23:54:10 12° SE 23:54:10 12° SE
